C/2018 A3 ( ATLAS )

Japanese version
Home page
Updated on April 25, 2020

---------------------------------------------------------------------

* Profile

Discovery Date January 10, 2018
Magnitude 18.7 mag
Discoverer Asteroid Terrestrial-impact Last Alert System (ATLAS) search program

* Pictures

* Orbital Elements

Epoch 2018 Dec. 28.0 TT = JDT 2458480.5
T 2019 Jan. 12.86334 TT                                 Rudenko
q   3.2767172            (2000.0)            P               Q
z  +0.0020063      Peri.   86.42655     -0.24776727     +0.95551871
 +/-0.0000004      Node   194.27956     +0.40380096     +0.25195804
e   0.9934260      Incl.  139.56199     +0.88065666     +0.15330079
From 1460 observations 2018 Jan. 10-2020 Jan. 21, mean residual 0".5.

* Finding Charts

* Magnitudes Graph

        m1 = 8.0 + 5 log d + 10.0 log r

---------------------------------------------------------------------

The orbital elements are published on M.P.E.C. 2020-G65.
The charts are made with StellaNavigator Ver.10 (AstroArts).
The magnitudes graphs are made with Comet for Windows.

---------------------------------------------------------------------

Copyright(C) Seiichi Yoshida (comet@aerith.net). All rights reserved.